Time,TemperatureF,DewpointF,PressureIn,WindDirection,WindDirectionDegrees,WindSpeedMPH,WindSpeedGustMPH,Humidity,HourlyPrecipIn,Conditions,Clouds,dailyrainin,SoftwareType,DateUTC
2013-07-02 00:01:00,74.0,49.0,30.02,NE,56,2.0,4.0,41,0.00,,,-99.99,,2013-07-02 05:01:00,
2013-07-02 00:11:00,73.0,48.0,30.03,NE,41,1.0,6.0,41,0.00,,,-99.99,,2013-07-02 05:11:00,
2013-07-02 00:22:00,73.0,48.0,30.03,NE,41,1.0,6.0,41,0.00,,,-99.99,,2013-07-02 05:22:00,
2013-07-02 00:32:00,72.0,48.0,30.04,NE,47,1.0,4.0,43,0.00,,,-99.99,,2013-07-02 05:32:00,
2013-07-02 00:43:00,72.0,48.0,30.04,NE,47,1.0,4.0,43,0.00,,,-99.99,,2013-07-02 05:43:00,
2013-07-02 00:53:00,72.0,48.0,30.04,NE,41,1.0,4.0,43,0.00,,,-99.99,,2013-07-02 05:53:00,
2013-07-02 01:01:00,72.0,48.0,30.04,NE,41,1.0,4.0,43,0.00,,,-99.99,,2013-07-02 06:01:00,
2013-07-02 01:11:00,72.0,48.0,30.04,North,9,3.0,4.0,43,0.00,,,-99.99,,2013-07-02 06:11:00,
2013-07-02 01:23:00,72.0,49.0,30.04,NNE,20,2.0,3.0,44,0.00,,,-99.99,,2013-07-02 06:23:00,
2013-07-02 01:33:00,72.0,49.0,30.04,NNE,20,2.0,3.0,44,0.00,,,-99.99,,2013-07-02 06:33:00,
2013-07-02 01:43:00,71.0,49.0,30.04,North,360,2.0,3.0,45,0.00,,,-99.99,,2013-07-02 06:43:00,
2013-07-02 01:53:00,71.0,49.0,30.04,North,11,2.0,4.0,45,0.00,,,-99.99,,2013-07-02 06:53:00,
2013-07-02 02:01:00,71.0,49.0,30.04,North,11,2.0,4.0,45,0.00,,,-99.99,,2013-07-02 07:01:00,
2013-07-02 02:11:00,71.0,49.0,30.04,NNE,13,3.0,4.0,46,0.00,,,-99.99,,2013-07-02 07:11:00,
2013-07-02 02:22:00,70.0,48.0,30.04,NNE,13,3.0,4.0,46,0.00,,,-99.99,,2013-07-02 07:22:00,
2013-07-02 02:33:00,70.0,48.0,30.04,NNE,13,3.0,4.0,46,0.00,,,-99.99,,2013-07-02 07:33:00,
2013-07-02 02:44:00,70.0,49.0,30.04,North,5,3.0,4.0,47,0.00,,,-99.99,,2013-07-02 07:44:00,
2013-07-02 02:52:00,70.0,49.0,30.04,North,5,3.0,4.0,47,0.00,,,-99.99,,2013-07-02 07:52:00,
2013-07-02 03:02:00,70.0,49.0,30.04,North,5,3.0,4.0,47,0.00,,,-99.99,,2013-07-02 08:02:00,
2013-07-02 03:12:00,70.0,49.0,30.04,North,5,3.0,4.0,47,0.00,,,-99.99,,2013-07-02 08:12:00,
2013-07-02 03:22:00,70.0,49.0,30.04,North,5,3.0,4.0,47,0.00,,,-99.99,,2013-07-02 08:22:00,
2013-07-02 03:33:00,69.0,49.0,30.05,North,4,2.0,4.0,49,0.00,,,-99.99,,2013-07-02 08:33:00,
2013-07-02 03:44:00,69.0,50.0,30.05,North,1,3.0,4.0,50,0.00,,,-99.99,,2013-07-02 08:44:00,
2013-07-02 03:53:00,69.0,50.0,30.05,North,1,3.0,4.0,50,0.00,,,-99.99,,2013-07-02 08:53:00,
2013-07-02 04:02:00,69.0,50.0,30.05,North,1,3.0,4.0,50,0.00,,,-99.99,,2013-07-02 09:02:00,
2013-07-02 04:11:00,69.0,50.0,30.05,North,11,2.0,4.0,51,0.00,,,-99.99,,2013-07-02 09:11:00,
2013-07-02 04:22:00,69.0,50.0,30.05,North,11,2.0,4.0,51,0.00,,,-99.99,,2013-07-02 09:22:00,
2013-07-02 04:33:00,69.0,50.0,30.05,North,11,2.0,4.0,51,0.00,,,-99.99,,2013-07-02 09:33:00,
2013-07-02 04:43:00,69.0,50.0,30.05,North,11,2.0,4.0,51,0.00,,,-99.99,,2013-07-02 09:43:00,
2013-07-02 04:52:00,67.0,50.0,30.06,North,4,3.0,3.0,55,0.00,,,-99.99,,2013-07-02 09:52:00,
2013-07-02 05:01:00,67.0,50.0,30.06,North,4,3.0,3.0,55,0.00,,,-99.99,,2013-07-02 10:01:00,
2013-07-02 05:11:00,67.0,50.0,30.06,North,4,3.0,3.0,55,0.00,,,-99.99,,2013-07-02 10:11:00,
2013-07-02 05:22:00,67.0,51.0,30.06,North,8,1.0,3.0,56,0.00,,,-99.99,,2013-07-02 10:22:00,
2013-07-02 05:33:00,67.0,51.0,30.06,North,8,1.0,3.0,56,0.00,,,-99.99,,2013-07-02 10:33:00,
2013-07-02 05:44:00,67.0,51.0,30.06,North,8,1.0,3.0,56,0.00,,,-99.99,,2013-07-02 10:44:00,
2013-07-02 05:52:00,67.0,51.0,30.06,North,8,1.0,3.0,56,0.00,,,-99.99,,2013-07-02 10:52:00,
2013-07-02 06:01:00,67.0,51.0,30.06,North,8,1.0,3.0,56,0.00,,,-99.99,,2013-07-02 11:01:00,
2013-07-02 06:11:00,66.0,51.0,30.07,North,4,3.0,4.0,58,0.00,,,-99.99,,2013-07-02 11:11:00,
2013-07-02 06:22:00,66.0,51.0,30.07,North,4,3.0,4.0,58,0.00,,,-99.99,,2013-07-02 11:22:00,
2013-07-02 06:33:00,66.0,51.0,30.07,North,4,3.0,4.0,58,0.00,,,-99.99,,2013-07-02 11:33:00,
2013-07-02 06:42:00,65.0,51.0,30.08,North,354,2.0,3.0,60,0.00,,,-99.99,,2013-07-02 11:42:00,
2013-07-02 06:52:00,66.0,51.0,30.08,NNE,33,3.0,4.0,59,0.00,,,-99.99,,2013-07-02 11:52:00,
2013-07-02 07:01:00,66.0,51.0,30.08,NNE,33,3.0,4.0,59,0.00,,,-99.99,,2013-07-02 12:01:00,
2013-07-02 07:11:00,65.0,51.0,30.09,NNW,345,4.0,4.0,61,0.00,,,-99.99,,2013-07-02 12:11:00,
2013-07-02 07:23:00,65.0,51.0,30.09,NNW,345,4.0,4.0,61,0.00,,,-99.99,,2013-07-02 12:23:00,
2013-07-02 07:33:00,65.0,51.0,30.09,NNW,345,4.0,4.0,61,0.00,,,-99.99,,2013-07-02 12:33:00,
2013-07-02 07:43:00,67.0,52.0,30.09,NNE,15,2.0,4.0,59,0.00,,,-99.99,,2013-07-02 12:43:00,
2013-07-02 07:52:00,67.0,52.0,30.09,NNE,15,2.0,4.0,59,0.00,,,-99.99,,2013-07-02 12:52:00,
2013-07-02 08:01:00,67.0,53.0,30.10,North,11,2.0,5.0,60,0.00,,,-99.99,,2013-07-02 13:01:00,
2013-07-02 08:43:00,70.0,54.0,30.11,NW,319,2.0,4.0,57,0.00,,,-99.99,,2013-07-02 13:43:00,
2013-07-02 08:52:00,70.0,54.0,30.11,NW,319,2.0,4.0,57,0.00,,,-99.99,,2013-07-02 13:52:00,
2013-07-02 09:11:00,73.0,54.0,30.11,NNE,25,1.0,6.0,52,0.00,,,-99.99,,2013-07-02 14:11:00,
2013-07-02 09:22:00,73.0,54.0,30.11,NNE,25,1.0,6.0,52,0.00,,,-99.99,,2013-07-02 14:22:00,
2013-07-02 09:33:00,73.0,54.0,30.11,NNE,25,1.0,6.0,52,0.00,,,-99.99,,2013-07-02 14:33:00,
2013-07-02 09:53:00,77.0,55.0,30.12,NE,34,1.0,4.0,47,0.00,,,-99.99,,2013-07-02 14:53:00,
2013-07-02 10:02:00,79.0,54.0,30.12,SE,134,0.0,4.0,42,0.00,,,-99.99,,2013-07-02 15:02:00,
2013-07-02 10:11:00,79.0,54.0,30.12,SE,134,0.0,4.0,42,0.00,,,-99.99,,2013-07-02 15:11:00,
2013-07-02 10:22:00,79.0,54.0,30.11,SE,138,1.0,5.0,42,0.00,,,-99.99,,2013-07-02 15:22:00,
2013-07-02 10:33:00,78.0,54.0,30.11,West,280,2.0,6.0,43,0.00,,,-99.99,,2013-07-02 15:33:00,
2013-07-02 10:44:00,78.0,54.0,30.11,West,280,2.0,6.0,43,0.00,,,-99.99,,2013-07-02 15:44:00,
2013-07-02 10:53:00,79.0,50.0,30.11,NNE,15,3.0,11.0,37,0.00,,,-99.99,,2013-07-02 15:53:00,
2013-07-02 11:01:00,79.0,50.0,30.11,NNE,15,3.0,11.0,37,0.00,,,-99.99,,2013-07-02 16:01:00,
2013-07-02 11:12:00,79.0,50.0,30.11,NNE,15,3.0,11.0,37,0.00,,,-99.99,,2013-07-02 16:12:00,
2013-07-02 11:22:00,81.0,50.0,30.11,East,90,5.0,10.0,34,0.00,,,-99.99,,2013-07-02 16:22:00,
2013-07-02 11:33:00,81.0,50.0,30.11,East,90,5.0,10.0,34,0.00,,,-99.99,,2013-07-02 16:33:00,
2013-07-02 11:43:00,82.0,47.0,30.10,NNE,30,3.0,9.0,30,0.00,,,-99.99,,2013-07-02 16:43:00,
2013-07-02 11:52:00,82.0,47.0,30.10,NNE,30,3.0,9.0,30,0.00,,,-99.99,,2013-07-02 16:52:00,
2013-07-02 12:02:00,82.0,47.0,30.10,NNE,30,3.0,9.0,30,0.00,,,-99.99,,2013-07-02 17:02:00,
2013-07-02 12:11:00,82.0,47.0,30.09,North,11,3.0,11.0,29,0.00,,,-99.99,,2013-07-02 17:11:00,
2013-07-02 12:33:00,83.0,46.0,30.09,NW,307,4.0,12.0,27,0.00,,,-99.99,,2013-07-02 17:33:00,
2013-07-02 12:43:00,83.0,46.0,30.09,NNW,330,5.0,14.0,27,0.00,,,-99.99,,2013-07-02 17:43:00,
2013-07-02 12:53:00,83.0,46.0,30.09,NNW,330,5.0,14.0,27,0.00,,,-99.99,,2013-07-02 17:53:00,
2013-07-02 13:02:00,83.0,47.0,30.09,NE,52,6.0,17.0,28,0.00,,,-99.99,,2013-07-02 18:02:00,
2013-07-02 13:12:00,84.0,46.0,30.09,ENE,58,5.0,12.0,27,0.00,,,-99.99,,2013-07-02 18:12:00,
2013-07-02 13:23:00,84.0,46.0,30.09,ENE,58,5.0,12.0,27,0.00,,,-99.99,,2013-07-02 18:23:00,
2013-07-02 13:34:00,84.0,46.0,30.09,ENE,58,5.0,12.0,27,0.00,,,-99.99,,2013-07-02 18:34:00,
2013-07-02 13:43:00,85.0,44.0,30.08,NE,44,5.0,13.0,24,0.00,,,-99.99,,2013-07-02 18:43:00,
2013-07-02 13:53:00,85.0,44.0,30.08,NE,44,5.0,13.0,24,0.00,,,-99.99,,2013-07-02 18:53:00,
2013-07-02 14:01:00,85.0,45.0,30.07,NNW,333,5.0,15.0,25,0.00,,,-99.99,,2013-07-02 19:01:00,
2013-07-02 14:12:00,85.0,45.0,30.07,NNW,333,5.0,15.0,25,0.00,,,-99.99,,2013-07-02 19:12:00,
2013-07-02 14:22:00,85.0,43.0,30.06,NW,319,3.0,17.0,23,0.00,,,-99.99,,2013-07-02 19:22:00,
2013-07-02 14:34:00,86.0,44.0,30.06,NNW,347,10.0,13.0,23,0.00,,,-99.99,,2013-07-02 19:34:00,
2013-07-02 14:43:00,86.0,44.0,30.06,NNW,347,10.0,13.0,23,0.00,,,-99.99,,2013-07-02 19:43:00,
2013-07-02 14:53:00,86.0,43.0,30.05,NE,53,3.0,8.0,22,0.00,,,-99.99,,2013-07-02 19:53:00,
2013-07-02 15:02:00,87.0,45.0,30.05,NNW,329,8.0,13.0,23,0.00,,,-99.99,,2013-07-02 20:02:00,
2013-07-02 15:11:00,87.0,45.0,30.05,NNW,329,8.0,13.0,23,0.00,,,-99.99,,2013-07-02 20:11:00,
2013-07-02 15:22:00,87.0,44.0,30.04,NE,46,4.0,15.0,22,0.00,,,-99.99,,2013-07-02 20:22:00,
2013-07-02 15:33:00,87.0,44.0,30.04,NE,46,4.0,15.0,22,0.00,,,-99.99,,2013-07-02 20:33:00,
2013-07-02 15:43:00,87.0,44.0,30.04,NE,46,4.0,15.0,22,0.00,,,-99.99,,2013-07-02 20:43:00,
2013-07-02 15:52:00,86.0,44.0,30.03,NE,49,7.0,14.0,23,0.00,,,-99.99,,2013-07-02 20:52:00,
2013-07-02 16:02:00,86.0,44.0,30.03,NE,49,7.0,14.0,23,0.00,,,-99.99,,2013-07-02 21:02:00,
2013-07-02 16:11:00,86.0,44.0,30.03,NE,49,7.0,14.0,23,0.00,,,-99.99,,2013-07-02 21:11:00,
2013-07-02 16:22:00,87.0,45.0,30.02,NE,53,5.0,16.0,23,0.00,,,-99.99,,2013-07-02 21:22:00,
2013-07-02 16:33:00,87.0,45.0,30.02,NE,53,5.0,16.0,23,0.00,,,-99.99,,2013-07-02 21:33:00,
2013-07-02 16:44:00,87.0,44.0,30.02,NNW,333,13.0,16.0,22,0.00,,,-99.99,,2013-07-02 21:44:00,
2013-07-02 16:52:00,87.0,44.0,30.02,NNW,333,13.0,16.0,22,0.00,,,-99.99,,2013-07-02 21:52:00,
2013-07-02 17:01:00,87.0,44.0,30.02,NNW,333,13.0,16.0,22,0.00,,,-99.99,,2013-07-02 22:01:00,
2013-07-02 17:11:00,87.0,44.0,30.01,NW,312,5.0,11.0,22,0.00,,,-99.99,,2013-07-02 22:11:00,
2013-07-02 17:22:00,87.0,44.0,30.01,NW,312,5.0,11.0,22,0.00,,,-99.99,,2013-07-02 22:22:00,
2013-07-02 17:34:00,87.0,44.0,30.01,NW,312,5.0,11.0,22,0.00,,,-99.99,,2013-07-02 22:34:00,
2013-07-02 17:43:00,87.0,44.0,30.01,NW,312,5.0,11.0,22,0.00,,,-99.99,,2013-07-02 22:43:00,
2013-07-02 17:53:00,87.0,44.0,30.01,NW,312,5.0,11.0,22,0.00,,,-99.99,,2013-07-02 22:53:00,
2013-07-02 18:01:00,88.0,44.0,30.00,NNE,12,3.0,11.0,22,0.00,,,-99.99,,2013-07-02 23:01:00,
2013-07-02 18:11:00,88.0,44.0,30.00,NNE,12,3.0,11.0,22,0.00,,,-99.99,,2013-07-02 23:11:00,
2013-07-02 18:22:00,88.0,44.0,30.00,NNE,12,3.0,11.0,22,0.00,,,-99.99,,2013-07-02 23:22:00,
2013-07-02 18:33:00,88.0,44.0,30.00,NNE,12,3.0,11.0,22,0.00,,,-99.99,,2013-07-02 23:33:00,
2013-07-02 19:01:00,88.0,41.0,29.99,NNW,344,6.0,10.0,19,0.00,,,-99.99,,2013-07-03 00:01:00,
2013-07-02 19:11:00,88.0,41.0,29.99,NNW,344,6.0,10.0,19,0.00,,,-99.99,,2013-07-03 00:11:00,
2013-07-02 19:22:00,87.0,40.0,29.99,NE,46,8.0,11.0,19,0.00,,,-99.99,,2013-07-03 00:22:00,
2013-07-02 19:33:00,87.0,38.0,29.99,NE,50,2.0,12.0,18,0.00,,,-99.99,,2013-07-03 00:33:00,
2013-07-02 19:44:00,87.0,38.0,29.99,NE,50,2.0,12.0,18,0.00,,,-99.99,,2013-07-03 00:44:00,
2013-07-02 19:52:00,87.0,38.0,29.99,NE,50,2.0,12.0,18,0.00,,,-99.99,,2013-07-03 00:52:00,
2013-07-02 20:01:00,87.0,38.0,29.99,NE,50,2.0,12.0,18,0.00,,,-99.99,,2013-07-03 01:01:00,
2013-07-02 20:11:00,87.0,38.0,29.99,NE,50,2.0,12.0,18,0.00,,,-99.99,,2013-07-03 01:11:00,
2013-07-02 20:22:00,85.0,41.0,30.00,NW,312,3.0,8.0,21,0.00,,,-99.99,,2013-07-03 01:22:00,
2013-07-02 20:30:00,84.0,40.0,30.00,ENE,65,3.0,8.0,21,0.00,,,-99.99,,2013-07-03 01:30:00,
2013-07-02 20:33:00,85.0,41.0,30.00,NW,312,3.0,8.0,21,0.00,,,-99.99,,2013-07-03 01:33:00,
2013-07-02 20:43:00,85.0,41.0,30.00,NW,312,3.0,8.0,21,0.00,,,-99.99,,2013-07-03 01:43:00,
2013-07-02 20:59:00,84.0,40.0,30.00,ENE,65,3.0,8.0,21,0.00,,,-99.99,,2013-07-03 01:59:00,
2013-07-02 21:13:00,84.0,40.0,30.00,ENE,65,3.0,8.0,21,0.00,,,-99.99,,2013-07-03 02:13:00,
2013-07-02 21:46:00,79.0,38.0,30.01,NE,50,2.0,4.0,23,0.00,,,-99.99,,2013-07-03 02:46:00,
2013-07-02 21:59:00,79.0,38.0,30.01,NE,50,2.0,4.0,23,0.00,,,-99.99,,2013-07-03 02:59:00,
2013-07-02 22:13:00,80.0,40.0,30.01,ENE,69,4.0,8.0,24,0.00,,,-99.99,,2013-07-03 03:13:00,
2013-07-02 22:25:00,80.0,40.0,30.01,ENE,69,4.0,8.0,24,0.00,,,-99.99,,2013-07-03 03:25:00,
2013-07-02 22:35:00,80.0,40.0,30.02,NE,35,5.0,8.0,24,0.00,,,-99.99,,2013-07-03 03:35:00,
2013-07-02 22:54:00,79.0,40.0,30.02,ENE,58,5.0,9.0,25,0.00,,,-99.99,,2013-07-03 03:54:00,
2013-07-02 23:01:00,78.0,40.0,30.03,NE,41,3.0,10.0,26,0.00,,,-99.99,,2013-07-03 04:01:00,
2013-07-02 23:11:00,77.0,41.0,30.04,ENE,58,4.0,5.0,28,0.00,,,-99.99,,2013-07-03 04:11:00,
2013-07-02 23:22:00,77.0,41.0,30.04,ENE,58,4.0,5.0,28,0.00,,,-99.99,,2013-07-03 04:22:00,
2013-07-02 23:33:00,77.0,41.0,30.04,ENE,58,4.0,5.0,28,0.00,,,-99.99,,2013-07-03 04:33:00,
2013-07-02 23:43:00,77.0,41.0,30.04,ESE,103,10.0,10.0,28,0.00,,,-99.99,,2013-07-03 04:43:00,
2013-07-02 23:52:00,77.0,41.0,30.04,ESE,103,10.0,10.0,28,0.00,,,-99.99,,2013-07-03 04:52:00,